Regional Weather Roundup
Issued by NWS Cleveland, OH

Home | Current Version | Previous Version | Text Only | Print | Product List | Glossary Off
Versions: 1 2 3 4 5 6 7 8 9 10 11 12 13 14 15 16 17 18 19 20 21 22 23 24 25 26 27 28 29 30 31 32 33 34 35 36 37 38 39 40 41 42 43 44 45 46 47 48 49 50

000
ASUS41 KCLE 311702
RWRCLE
OHIO REGIONAL WEATHER ROUNDUP
NATIONAL WEATHER SERVICE CLEVELAND, OH
100 PM EDT THU JUL 31 2014

NOTE: "FAIR" INDICATES FEW OR NO CLOUDS BELOW 12,000 FEET WITH NO
SIGNIFICANT WEATHER AND/OR OBSTRUCTIONS TO VISIBILITY.

OHZ001>008-015>018-024>027-034-035-043-044-311800-
   NORTHWEST OHIO

CITY           SKY/WX    TMP DP  RH WIND       PRES   REMARKS
DEFIANCE       MOSUNNY   77  55  46 VRB7      30.07S
FINDLAY        SUNNY     78  55  44 W10       30.07S
TOLEDO EXPRESS SUNNY     78  52  40 SW9       30.06S
TOLEDO EXEC    SUNNY     77  50  38 SW12G20   30.06F
LIMA           SUNNY     76  59  55 W13G20    30.09S
$$

OHZ009>014-019>023-028>033-038-089-311800-
   NORTHEAST OHIO

CITY           SKY/WX    TMP DP  RH WIND       PRES   REMARKS
CLE-HOPKINS    SUNNY     73  51  46 W8        30.09S
CLE-LAKEFRONT  SUNNY     72  51  47 W13       30.06S
CUY CO. ARPT   MOSUNNY   77  52  41 W14       30.09R
LORAIN-ELYRIA  SUNNY     76  53  44 W8        30.09R
ASHTABULA      MOSUNNY   73  52  47 W10       30.07S
AKRON-CANTON   MOSUNNY   75  58  55 NW9       30.09S
WOOSTER        MOSUNNY   75  58  55 W13       30.10S
MANSFIELD      MOSUNNY   74  55  51 W12G18    30.10S
YOUNGSTOWN     PTSUNNY   74  57  55 SW12      30.08S
$$

OHZ042-051>053-060>062-070>072-077>081-311800-
  SOUTHWEST OHIO

CITY           SKY/WX    TMP DP  RH WIND       PRES   REMARKS
CINC-COVINGTON MOSUNNY   79  59  50 W9        30.11S
CINC-LUNKEN    MOSUNNY   79  59  50 W9        30.10S
HAMILTON       MOSUNNY   77  63  61 VRB6      30.11S
DAYTON         MOSUNNY   81  58  45 W10       30.11S
WRIGHT-PAT AFB NOT AVBL
DAYTON GENERAL MOSUNNY   78  62  57 MISG      30.10S
WILMINGTON     MOSUNNY   78  61  55 W12       30.11S
$$

OHZ036-037-039>041-045>050-054>059-063>069-073>076-082>088-311800-
  CENTRAL AND SOUTHEAST OHIO

CITY           SKY/WX    TMP DP  RH WIND       PRES   REMARKS
COLUMBUS       MOSUNNY   80  58  46 W9G18     30.09S
OSU AIRPORT    MOSUNNY   78  60  53 W13       30.09S
BOLTON FIELD   PTSUNNY   75  64  69 W3        30.10S
RICKENBACK AFB MOSUNNY   79  59  50 W7        30.09S
NEWARK         MOSUNNY   77  62  59 W8        30.09S
MARION         MOSUNNY   75  57  53 W7        30.10R
LANCASTER      MOSUNNY   76  62  62 W10       30.11S
ZANESVILLE     PTSUNNY   76  60  57 SW8       30.10S
NEW PHILLY     PTSUNNY   74  63  68 SW8       30.10S
$$


USA.gov is the U.S. government's official web portal to all federal, state and local government web resources and services.